Regional Weather Roundup
Issued by NWS Upton, NY

Current Version | Previous Version | Text Only | Print | Product List | Glossary On
Versions: 1 2 3 4 5 6 7 8 9 10 11 12 13 14 15 16 17 18 19 20 21 22 23 24 25 26 27 28 29
000
ASUS41 KOKX 310005
RWROKX

REGIONAL WEATHER ROUNDUP
NATIONAL WEATHER SERVICE NEW YORK NY
800 PM EDT THU OCT 30 2014

NOTE: "FAIR" INDICATES FEW OR NO CLOUDS BELOW 12,000 FEET WITH NO
SIGNIFICANT WEATHER AND/OR OBSTRUCTIONS TO VISIBILITY.

NYZ071-072-176-178-NJZ106-104-310100-
NEW YORK CITY METRO AREA


CITY           SKY/WX    TMP DP  RH WIND       PRES   REMARKS
CENTRAL PARK   CLEAR     52  33  48 VRB6      30.04R
LAGUARDIA APRT PTCLDY    53  37  54 NW15      30.01R
KENNEDY INTL   PTCLDY    52  33  48 NW14      30.02R
NEWARK/LIBERTY PTCLDY    52  33  48 NW8       30.02R
BRNX BOT. GARD   N/A     50  34  53 NW7       30.03S
TETERBORO      CLEAR     49  34  56 NW6       30.01R
$$

NYZ177-179-078>081-310100-
LONG ISLAND NEW YORK

CITY           SKY/WX    TMP DP  RH WIND       PRES   REMARKS
FARMINGDALE    CLEAR     51  36  56 NW6       30.01R
ISLIP          MOCLDY    51  38  60 NW8       29.98R
SHIRLEY        CLOUDY    49  40  71 NW5       30.00R
WESTHAMPTON    CLOUDY    46  39  76 CALM      30.00R
MONTAUK POINT    N/A     55  37  50 NW9       29.99R
$$

NYZ052-065-067-310100-
HUDSON VALLEY

CITY           SKY/WX    TMP DP  RH WIND       PRES   REMARKS
WHITE PLAINS   CLEAR     48  36  63 NW8       30.00R
NEWBURGH       PTCLDY    46  37  71 NW9       30.02R
MONTGOMERY     MOCLDY    47  36  65 NW7       30.01R
POUGHKEEPSIE   CLOUDY    52  36  54 NW8       30.00R
ALBANY         PTCLDY    45  33  63 W9        30.02R
$$

NJZ001-105-106-008-010-013-015-019>022-104-310100-
NEW JERSEY

CITY           SKY/WX    TMP DP  RH WIND       PRES   REMARKS
NEWARK/LIBERTY PTCLDY    52  33  48 NW8       30.02R
TETERBORO      CLEAR     49  34  56 NW6       30.01R
CALDWELL       CLEAR     46  34  62 CALM      30.02S
MORRISTOWN     CLEAR     50  36  57 NW3       30.03R
SOMERVILLE     CLEAR     43  35  73 CALM      30.02R
SUSSEX         CLEAR     43  34  70 CALM      30.02S
ANDOVER          N/A     41  34  76 CALM      30.02S
TRENTON        CLEAR     48  33  56 N6        30.02S
MILLVILLE      CLEAR     44  40  85 W3        30.02R
ATLANTIC CITY  PTCLDY    45  39  79 CALM      30.02R
WRIGHTSTOWN    CLEAR     45  36  69 N5        30.01R
TOMS RIVER     CLEAR     46  37  71 CALM      30.02R
BELMAR         CLEAR     48  32  53 NW6       30.02R
$$

PAZ047>061-062-071-310100-
EASTERN PENNSYLVANIA

CITY           SKY/WX    TMP DP  RH WIND       PRES   REMARKS
PHILADELPHIA   PTCLDY    51  36  56 NW7       30.03R
ALLENTOWN      CLOUDY    48  33  56 N5        30.04R
SCRANTON       CLOUDY    48  31  51 N5        30.03S
$$

CTZ002-004>006-009-010-012-RIZ004-006-007-MAZ004-011-015-310100-
SOUTHERN NEW ENGLAND
 IN CT

CITY           SKY/WX    TMP DP  RH WIND       PRES   REMARKS
BRADLEY INTL   PTCLDY    45  35  68 NW5       29.98R
HARTFORD       FAIR      49  36  61 SW7       29.99R
DANBURY        CLOUDY    48  36  63 W3        30.01R
WTRBRY/OXFORD  MOCLDY    45  34  65 N5        29.99S
BRIDGEPORT     CLEAR     49  37  63 NW5       29.99S
MERIDEN        CLEAR     43  37  79 CALM      29.99S
NEW HAVEN      CLEAR     47  35  63 N3        29.99R
CHESTER        FAIR      46  36  66 NW5       29.99R
GROTON         CLEAR     47  37  68 CALM      29.98R
WILLIMANTIC    CLEAR     46  37  71 CALM      29.98S

 IN RI

CITY           SKY/WX    TMP DP  RH WIND       PRES   REMARKS
PROVIDENCE     PTCLDY    49  35  58 W5        29.98R
BLOCK ISLAND   CLEAR     52  36  54 N10       29.97S
WESTERLY       CLEAR     49  35  58 NW3       29.99R

 IN MA

CITY           SKY/WX    TMP DP  RH WIND       PRES   REMARKS
BOSTON         PTCLDY    52  36  54 NW6       29.97R
WORCESTER      CLEAR     44  35  70 NW10      29.96S
WESTFIELD      CLEAR     39  36  89 CALM      29.98R
PROVINCETOWN   CLOUDY    48  -4  11 CALM      29.96S
NANTUCKET      CLEAR     52  41  66 W6        29.94S
$$

ANZ330-335-338-340-345-350-353-355-310100-
COASTAL MARINE OBSERVATIONS


STATION/POSITION TIME  SKY/WX   TEMP    WIND        PRES    VSBY  WAVE
                                AIR SEA DIR/SP/G                  HT/PER
                 (UTC)          (F)     (DEG/KT/KT) (MB)    (MI)  (FT/S)
NY HARB ENTRANCE 0000            55 61  320/ 16/ 17 1016.2          2/ 3
4S FIRE IS       0000               62                N/A           2/ 8
20S FIRE ISLAND  0000            56 62  320/ 12/ 17 1015.6          2/ 8
23SW MTP         0000                                 N/A           2/ 8
HUDSON CANYON    0000            57 64  330/ 12/ 16 1015.2          2/ 8
EXECUTION ROCKS  0000            53 60  320/ 12/ 16   N/A
WESTERN LI SOUND 0000            54     300/ 14/ 17   N/A           1
CENTRAL LI SOUND 2300            55 61  350/ 12/ 16   N/A           1/ 2
EASTERN LI SOUND 2300            55 62  340/ 12/ 14   N/A
ROBBINS REEF     0000            53     330/ 12/ 15 1015.0
$$


>>>>>>>>>>>>>>>>>>>>>>>>>>>> KEY <<<<<<<<<<<<<<<<<<<<<<<<<<<
>                                                          <
>     SKY/WX - SKY CONDITION/PRESENT WEATHER               <
>     TMP    - TEMPERATURE IN FAHRENHEIT                   <
>     DP     - DEWPOINT IN FAHRENHEIT                      <
>     RH     - RELATIVE HUMIDITY IN PERCENT                <
>     WIND   - DIRECTION AND SPEED IN MPH                  <
>     PRES   - MEAN SEA LEVEL PRESSURE IN INCHES OF HG     <
>     WCI    - WIND CHILL INDEX                            <
>     VSB    - VISIBILITY IN MILES                         <
>     HX     - HEAT INDEX                                  <
>     TC     - TEMPERATURE IN CELSIUS                      <
>     VRB    - VARIABLE WIND DIRECTION                     <
>                                                          <
>>>>>>>>>>>>>>>>>>>>>>>>>>>> KEY <<<<<<<<<<<<<<<<<<<<<<<<<<<





USA.gov is the U.S. government's official web portal to all federal, state and local government web resources and services.